Location: Alafon
(8.4500°N, 4.2333°E)
Time: 17:01:28
(UTC+00:00)

Transit 2A Rocket - All Passes

Search period start: 28 July 2021 00:00
Search period end: 07 August 2021 00:00
Orbit: 589 x 913 km, 66.7° (Epoch: 28 July)

Date Brightness Start Highest point End Pass type
(mag) Time Alt. Az. Time Alt. Az. Time Alt. Az.
28 Jul - 00:31:35 10° N 00:37:15 45° ENE 00:43:02 10° SE night (unlit)
28 Jul - 02:16:06 10° WNW 02:19:35 16° WSW 02:23:06 10° SW night (unlit)
28 Jul - 13:07:41 10° S 13:11:51 51° ESE 13:16:01 10° NNE daylight
28 Jul - 23:49:58 10° NNE 23:54:36 24° ENE 23:59:20 10° ESE night (unlit)
29 Jul - 01:31:49 10° NW 01:37:02 31° WSW 01:42:19 10° S night (unlit)
29 Jul - 12:26:04 10° SSE 12:29:19 21° ESE 12:32:35 10° ENE daylight
29 Jul - 14:09:12 10° W 14:11:36 15° WNW 14:14:01 10° NNW daylight
29 Jul - 23:09:57 10° NE 23:11:55 12° ENE 23:13:52 10° E night (unlit)
30 Jul - 00:48:35 10° NNW 00:54:28 61° WSW 01:00:28 10° S night (unlit)
30 Jul - 13:25:05 10° SW 13:28:57 34° WNW 13:32:53 10° N daylight
31 Jul - 00:05:56 10° NNW 00:11:53 70° ENE 00:17:57 10° SSE night (unlit)
31 Jul - 12:42:06 10° SSW 12:46:22 86° WNW 12:50:42 10° NNE daylight
31 Jul - 23:23:52 10° N 23:29:17 36° ENE 23:34:48 10° SE night (unlit)
01 Aug - 01:07:19 10° WNW 01:11:38 20° WSW 01:15:58 10° SSW night (unlit)
01 Aug - 11:59:54 10° S 12:03:50 37° ESE 12:07:49 10° NE daylight
01 Aug - 22:42:34 10° NNE 22:46:37 19° ENE 22:50:43 10° ESE night (unlit)
02 Aug - 00:23:31 10° NW 00:29:04 40° WSW 00:34:43 10° S night (unlit)
02 Aug - 11:18:45 10° SE 11:21:20 16° ESE 11:23:54 10° ENE daylight
02 Aug - 13:00:25 10° WSW 13:03:33 20° WNW 13:06:44 10° NNW daylight
02 Aug - 23:40:31 10° NNW 23:46:30 78° WSW 23:52:36 10° SSE night (unlit)
03 Aug - 12:16:49 10° SW 12:20:55 46° WNW 12:25:06 10° N daylight
03 Aug - 22:58:05 10° N 23:03:55 55° ENE 23:09:52 10° SSE night (unlit)
04 Aug - 00:43:42 10° W 00:46:13 13° WSW 00:48:45 10° SW night (unlit)
04 Aug - 11:34:08 10° SSW 11:38:22 68° ESE 11:42:40 10° NNE daylight
04 Aug - 22:16:13 10° N 22:21:18 28° ENE 22:26:26 10° SE night (unlit)
04 Aug - 23:58:47 10° NW 00:03:41 26° WSW 00:08:37 10° SSW night (unlit)
05 Aug - 10:52:14 10° SSE 10:55:51 27° ESE 10:59:30 10° NE daylight
05 Aug - 12:36:44 10° W 12:38:11 11° WNW 12:39:39 10° NW daylight
05 Aug - 21:35:26 10° NE 21:38:36 15° ENE 21:41:47 10° E night (unlit)
05 Aug - 23:15:19 10° NW 23:21:07 50° WSW 23:26:59 10° S night (unlit)
06 Aug - 10:11:59 10° SE 10:13:20 11° ESE 10:14:41 10° E daylight
06 Aug - 11:51:54 10° SW 11:55:30 27° WNW 11:59:11 10° N daylight
06 Aug - 22:32:31 10° NNW 22:38:33 84° ENE 22:44:39 10° SSE night (unlit)
